Weather History for Metropolis, IL

Change the Weather History Date:

Thursday, January 2, 2014

  Actual Average (KPAH) Record (KPAH)
Temperature  
Mean Temperature 29 °F 35 °F  
Max Temperature 40 °F 43 °F 70 °F (2000)
Min Temperature 18 °F 26 °F 5 °F (1979)
Degree Days  
Heating Degree Days 36 30  
Month to date heating degree days 60  
Since 1 July heating degree days 1691  
Cooling Degree Days 0 0  
Month to date cooling degree days 0  
Year to date cooling degree days 0  
Moisture  
Dew Point 18 °F    
Average Humidity 73    
Maximum Humidity 97    
Minimum Humidity 58    
Precipitation  
Precipitation 0.00 in 0.12 in 2.10 in (2000)
Month to date precipitation 0.24  
Year to date precipitation 0.24  
Snow  
Snow 0.00 in 0.10 in 1.10 in (1996)
Month to date snowfall 0.2  
Since 1 July snowfall 2.5  
Snow Depth -    
Sea Level Pressure  
Sea Level Pressure 30.18 in    
Wind  
Wind Speed 10 mph (NW)    
Max Wind Speed 21 mph    
Max Gust Speed 30 mph    
Visibility 8 miles    
Events Rain , Snow    
T = Trace of Precipitation, MM = Missing Value Source: NWS Daily Summary

Daily Weather History Graph

Daily Weather History Graph

Search for Another Location

Airport:

Trip Planner

Search our weather history database for the weather conditions in past years. The results will help you decide how hot, cold, wet, or windy it might be!

Date:

Astronomy

Jan. 02, 2014 Rise Set
Actual Time 7:08 AM CST 4:49 PM CST
Civil Twilight 6:40 AM CST 5:18 PM CST
Nautical Twilight 6:07 AM CST 5:50 PM CST
Astronomical Twilight 5:35 AM CST 6:22 PM CST
Moon 7:52 AM CST (1/2) 6:43 PM CST (1/2)
Length of Visible Light 10h 38m
Length of Day
9h 40m
Waxing Crescent, 3% of the Moon is Illuminated
Jan 2
Waxing Crescent
Jan 7
First Quarter
Jan 15
Full
Jan 23
Last Quarter
Jan 30
New

Hourly Weather History & Observations

Time (CST) Temp. Windchill Dew Point Humidity Pressure Visibility Wind Dir Wind Speed Gust Speed Precip Events Conditions
12:15 AM 39.2 °F - 38.3 °F 97% 29.94 in 7.0 mi Calm Calm - N/A   Light Drizzle
12:35 AM 39.2 °F - 37.9 °F 95% 29.93 in 10.0 mi Calm Calm - N/A   Overcast
12:55 AM 39.2 °F - 38.3 °F 97% 29.93 in 10.0 mi Calm Calm - N/A   Overcast
1:15 AM 40.5 °F 38.4 °F 35.6 °F 83% 29.94 in 5.0 mi West 3.5 mph - N/A Rain Rain
1:35 AM 40.3 °F - 38.1 °F 92% 29.93 in 3.0 mi Calm Calm - N/A   Light Drizzle
1:55 AM 40.1 °F 38.0 °F 38.8 °F 95% 29.93 in 7.0 mi SW 3.5 mph - N/A   Overcast
2:15 AM 40.3 °F 38.2 °F 39.4 °F 97% 29.93 in 5.0 mi West 3.5 mph - N/A   Overcast
2:35 AM 40.1 °F 35.3 °F 39.0 °F 96% 29.93 in 4.0 mi WNW 6.9 mph - N/A   Overcast
2:55 AM 39.0 °F 34.0 °F 36.5 °F 91% 29.93 in 10.0 mi NW 6.9 mph - N/A   Overcast
3:15 AM 38.5 °F 31.6 °F 36.5 °F 93% 29.93 in 10.0 mi NNW 10.4 mph - N/A   Overcast
3:35 AM 37.6 °F 29.1 °F 35.8 °F 93% 29.93 in 7.0 mi NW 13.8 mph 19.6 mph N/A   Overcast
3:55 AM 35.2 °F 26.2 °F 33.4 °F 93% 29.94 in 7.0 mi NW 13.8 mph 19.6 mph N/A   Overcast
4:15 AM 33.4 °F 22.7 °F 32.0 °F 94% 29.94 in 7.0 mi NNW 17.3 mph 21.9 mph N/A   Light Drizzle
4:35 AM 32.4 °F 20.9 °F 31.5 °F 96% 29.95 in 4.0 mi NNW 18.4 mph - N/A Snow Light Snow
4:55 AM 31.1 °F 20.5 °F 29.3 °F 93% 29.96 in 3.0 mi NW 15.0 mph 27.6 mph N/A Snow Light Snow
5:15 AM 29.3 °F 18.2 °F 27.0 °F 91% 29.96 in 2.5 mi NW 15.0 mph 26.5 mph N/A Snow Light Snow
5:35 AM 27.9 °F 16.3 °F 23.9 °F 85% 29.99 in 7.0 mi NW 15.0 mph 26.5 mph N/A Snow Light Snow
5:55 AM 27.0 °F 14.7 °F 21.7 °F 81% 30.01 in 3.0 mi NW 16.1 mph 23.0 mph N/A Snow Light Snow
6:15 AM 26.6 °F 14.7 °F 21.0 °F 79% 30.03 in 7.0 mi NNW 15.0 mph 21.9 mph N/A   Overcast
6:35 AM 25.7 °F 13.5 °F 19.6 °F 78% 30.04 in 2.5 mi NNW 15.0 mph 24.2 mph N/A Snow Light Snow
6:55 AM 25.5 °F 12.0 °F 19.2 °F 77% 30.05 in 5.0 mi NNW 18.4 mph 26.5 mph N/A Snow Light Snow
7:15 AM 25.3 °F 12.2 °F 18.5 °F 75% 30.06 in 4.0 mi NW 17.3 mph 24.2 mph N/A Snow Light Snow
7:35 AM 24.8 °F 12.4 °F 18.3 °F 76% 30.07 in 3.0 mi NNW 15.0 mph 27.6 mph N/A Snow Light Snow
7:55 AM 24.4 °F 11.0 °F 19.2 °F 81% 30.09 in 1.5 mi NW 17.3 mph 21.9 mph N/A Snow Light Snow
8:15 AM 23.0 °F 9.6 °F 15.8 °F 74% 30.11 in 4.0 mi NNW 16.1 mph 24.2 mph N/A Snow Light Snow
8:35 AM 23.0 °F 10.1 °F 16.2 °F 75% 30.11 in 7.0 mi NNW 15.0 mph 21.9 mph N/A   Overcast
8:55 AM 23.0 °F 10.6 °F 14.9 °F 71% 30.12 in 10.0 mi NNW 13.8 mph 23.0 mph N/A   Overcast
9:15 AM 22.8 °F 8.1 °F 14.7 °F 71% 30.13 in 10.0 mi NW 19.6 mph 27.6 mph N/A   Mostly Cloudy
9:35 AM 23.4 °F 9.6 °F 14.9 °F 70% 30.15 in 10.0 mi NW 17.3 mph 26.5 mph N/A   Mostly Cloudy
9:55 AM 23.4 °F 10.1 °F 14.9 °F 70% 30.16 in 10.0 mi NNW 16.1 mph 24.2 mph N/A   Overcast
10:15 AM 23.5 °F 10.8 °F 14.9 °F 70% 30.18 in 10.0 mi NNW 15.0 mph 25.3 mph N/A   Overcast
10:35 AM 23.9 °F 9.1 °F 15.3 °F 70% 30.19 in 10.0 mi NW 20.7 mph 25.3 mph N/A   Overcast
10:55 AM 23.9 °F 9.5 °F 15.3 °F 70% 30.18 in 10.0 mi NNW 19.6 mph 26.5 mph N/A   Overcast
11:15 AM 23.5 °F 9.4 °F 14.9 °F 70% 30.18 in 10.0 mi NW 18.4 mph 29.9 mph N/A   Overcast
11:35 AM 23.5 °F 9.4 °F 15.3 °F 71% 30.19 in 10.0 mi NNW 18.4 mph 25.3 mph N/A   Overcast
11:55 AM 23.5 °F 9.9 °F 14.9 °F 70% 30.19 in 10.0 mi NW 17.3 mph 24.2 mph N/A   Overcast
12:15 PM 23.9 °F 9.9 °F 14.7 °F 68% 30.19 in 10.0 mi NNW 18.4 mph 24.2 mph N/A   Overcast
12:35 PM 24.6 °F 12.2 °F 15.1 °F 67% 30.19 in 10.0 mi NW 15.0 mph 19.6 mph N/A   Overcast
12:55 PM 25.2 °F 13.9 °F 14.9 °F 65% 30.19 in 10.0 mi NW 12.7 mph 24.2 mph N/A   Overcast
1:15 PM 25.5 °F 11.3 °F 14.0 °F 62% 30.19 in 10.0 mi NW 20.7 mph 27.6 mph N/A   Mostly Cloudy
1:35 PM 24.8 °F 12.9 °F 12.7 °F 60% 30.20 in 10.0 mi NW 13.8 mph 25.3 mph N/A   Scattered Clouds
1:55 PM 25.0 °F 12.2 °F 13.1 °F 61% 30.21 in 10.0 mi NNW 16.1 mph 27.6 mph N/A   Mostly Cloudy
2:15 PM 25.5 °F 12.4 °F 13.3 °F 60% 30.21 in 10.0 mi NNW 17.3 mph 28.8 mph N/A   Mostly Cloudy
2:35 PM 25.5 °F 12.9 °F 13.3 °F 60% 30.21 in 10.0 mi NW 16.1 mph 21.9 mph N/A   Overcast
2:55 PM 25.5 °F 11.6 °F 13.3 °F 60% 30.23 in 10.0 mi NW 19.6 mph 27.6 mph N/A   Mostly Cloudy
3:15 PM 25.0 °F 14.8 °F 12.6 °F 59% 30.24 in 10.0 mi NW 10.4 mph 23.0 mph N/A   Overcast
3:35 PM 24.8 °F 11.1 °F 12.0 °F 58% 30.26 in 10.0 mi NW 18.4 mph 24.2 mph N/A   Overcast
3:55 PM 24.8 °F 11.5 °F 12.2 °F 59% 30.27 in 10.0 mi NNW 17.3 mph 23.0 mph N/A   Overcast
4:15 PM 24.8 °F 11.5 °F 12.4 °F 59% 30.28 in 10.0 mi NW 17.3 mph 23.0 mph N/A   Overcast
4:35 PM 24.4 °F 11.0 °F 11.7 °F 58% 30.29 in 10.0 mi NNW 17.3 mph 24.2 mph N/A   Overcast
4:55 PM 24.1 °F 13.1 °F 11.5 °F 59% 30.30 in 10.0 mi NW 11.5 mph 20.7 mph N/A   Overcast
5:15 PM 24.1 °F 12.5 °F 11.3 °F 58% 30.32 in 10.0 mi NW 12.7 mph 17.3 mph N/A   Overcast
5:35 PM 23.9 °F 12.3 °F 11.1 °F 58% 30.34 in 10.0 mi NW 12.7 mph 18.4 mph N/A   Overcast
5:55 PM 23.5 °F 11.8 °F 11.1 °F 59% 30.34 in 10.0 mi NNW 12.7 mph 26.5 mph N/A   Overcast
6:15 PM 23.5 °F 13.7 °F 12.0 °F 61% 30.35 in 10.0 mi NW 9.2 mph - N/A   Overcast
6:35 PM 23.0 °F 12.4 °F 11.1 °F 60% 30.37 in 10.0 mi NW 10.4 mph 18.4 mph N/A   Overcast
6:55 PM 22.8 °F 11.5 °F 11.3 °F 61% 30.37 in 10.0 mi NNW 11.5 mph 17.3 mph N/A   Overcast
7:15 PM 22.6 °F 8.7 °F 11.1 °F 61% 30.37 in 10.0 mi NW 17.3 mph 21.9 mph N/A   Overcast
7:35 PM 21.6 °F 9.3 °F 9.9 °F 61% 30.39 in 10.0 mi NNW 12.7 mph 20.7 mph N/A   Scattered Clouds
7:55 PM 21.0 °F 8.1 °F 9.3 °F 61% 30.39 in 10.0 mi NNW 13.8 mph 17.3 mph N/A   Clear
8:15 PM 20.7 °F 9.5 °F 9.9 °F 63% 30.40 in 10.0 mi NNW 10.4 mph - N/A   Scattered Clouds
8:35 PM 21.0 °F 9.9 °F 10.4 °F 64% 30.40 in 10.0 mi North 10.4 mph - N/A   Mostly Cloudy
8:55 PM 20.8 °F 8.4 °F 9.5 °F 62% 30.41 in 10.0 mi NNW 12.7 mph 18.4 mph N/A   Overcast
9:15 PM 20.1 °F 8.1 °F 9.5 °F 63% 30.41 in 10.0 mi NNW 11.5 mph 17.3 mph N/A   Overcast
9:35 PM 19.9 °F 8.6 °F 9.5 °F 64% 30.42 in 10.0 mi NNW 10.4 mph - N/A   Mostly Cloudy
9:55 PM 19.4 °F 9.5 °F 9.5 °F 65% 30.42 in 10.0 mi NNW 8.1 mph - N/A   Scattered Clouds
10:15 PM 19.4 °F 8.6 °F 9.5 °F 65% 30.42 in 10.0 mi North 9.2 mph - N/A   Scattered Clouds
10:35 PM 19.0 °F 10.0 °F 10.0 °F 68% 30.42 in 10.0 mi NNW 6.9 mph - N/A   Mostly Cloudy
10:55 PM 18.5 °F 9.3 °F 10.0 °F 70% 30.44 in 10.0 mi NW 6.9 mph - N/A   Scattered Clouds
11:15 PM 18.5 °F 9.3 °F 10.0 °F 70% 30.44 in 10.0 mi NNW 6.9 mph - N/A Snow Light Snow
11:35 PM 18.5 °F 8.4 °F 9.9 °F 69% 30.44 in 10.0 mi NNW 8.1 mph - N/A   Overcast
11:55 PM 18.0 °F 8.7 °F 10.0 °F 71% 30.45 in 7.0 mi NW 6.9 mph - N/A Snow Light Snow